This is the latest recevied weather packets stored in our database for station/object KG5WBN. If no packets are shown the sender has not sent any weather packets the latest 10 day(s).
| Time | Temp. | Humidity | Pressure | Rain* | Wind** | Luminosity | Snow |
|---|---|---|---|---|---|---|---|
| 1777766931 | 21.67° C | 29% | 1015.6 hPa | 0 mm | - | 14 W/m² | - |
| 1777766628 | 21.67° C | 29% | 1015.6 hPa | 0 mm | - | 13 W/m² | - |
| 1777766324 | 22.78° C | 28% | 1015.6 hPa | 0 mm | - | 16 W/m² | - |
| 1777766022 | 22.78° C | 32% | 1015.6 hPa | 0 mm | - | 19 W/m² | - |
| 1777765718 | 22.78° C | 34% | 1015.2 hPa | 0 mm | - | 21 W/m² | - |
| 1777765415 | 22.78° C | 34% | 1015.6 hPa | 0 mm | - | 23 W/m² | - |
| 1777765112 | 22.78° C | 31% | 1015.2 hPa | 0 mm | - | 26 W/m² | - |
| 1777764802 | 23.33° C | 34% | 1015.2 hPa | 0 mm | - | 27 W/m² | - |
| 1777764500 | 23.33° C | 34% | 1015.2 hPa | 0 mm | - | 38 W/m² | - |
| 1777764196 | 23.89° C | 34% | 1015.2 hPa | 0 mm | - | 57 W/m² | - |
| 1777763892 | 23.89° C | 34% | 1015.2 hPa | 0 mm | - | 91 W/m² | - |
| 1777763590 | 23.33° C | 34% | 1014.9 hPa | 0 mm | - | 39 W/m² | - |
| 1777763288 | 23.33° C | 34% | 1014.9 hPa | 0 mm | - | 36 W/m² | - |
| 1777762986 | 23.33° C | 33% | 1014.6 hPa | 0 mm | - | 36 W/m² | - |
| 1777762682 | 23.33° C | 33% | 1014.6 hPa | 0 mm | - | 52 W/m² | - |
| 1777762379 | 23.89° C | 33% | 1015.2 hPa | 0 mm | - | 55 W/m² | - |
| 1777762075 | 23.89° C | 33% | 1014.9 hPa | 0 mm | - | 50 W/m² | - |
| 1777761772 | 23.89° C | 32% | 1014.9 hPa | 0 mm | - | 40 W/m² | - |
| 1777761470 | 23.33° C | 31% | 1014.6 hPa | 0 mm | - | 40 W/m² | - |
| 1777761168 | 23.33° C | 30% | 1014.6 hPa | 0 mm | - | 39 W/m² | - |
| 1777760865 | 23.33° C | 29% | 1014.6 hPa | 0 mm | - | 41 W/m² | - |
| 1777760562 | 23.89° C | 28% | 1014.6 hPa | 0 mm | - | 41 W/m² | - |
| 1777760257 | 23.89° C | 27% | 1014.6 hPa | 0 mm | - | 69 W/m² | - |
| 1777759949 | 23.89° C | 25% | 1014.6 hPa | 0 mm | - | 50 W/m² | - |
| 1777759645 | 25° C | 25% | 1014.6 hPa | 0 mm | - | 290 W/m² | - |
* Rain latest hour (hover to see other rain measurements)
** Current wind speed in m/s (hover to see current wind gust speed)